User: anonymous   Login
Location: Unspecified
(0.0000°N, 0.0000°E)
Time: 11:09:03
(UTC+00:00)
Language:

COSMOS 2508 - Orbit

View from above orbital plane
View from above orbital plane
View from above satellite
View from above satellite

Ground track
Ground track

The orbit data is extracted from the following two-line orbital elements,

1 40921U 15050B   23331.95533499  .00000026  00000-0  11660-3 0  9991
2 40921  82.4850 298.8709 0012673 257.2010 102.7654 12.42888416371037
Epoch (UTC): 27 November 2023 22:55:40
Eccentricity: 0.0012673
inclination: 82.4850°
perigee height: 1484 km
apogee height: 1504 km
right ascension of ascending node: 298.8709°
argument of perigee: 257.2010°
revolutions per day: 12.42888416
mean anomaly at epoch: 102.7654°
orbit number at epoch: 37103

The dashed part of the orbit path shows where the satellite is in the earth's shadow,  

DLR